Wind_Speed
27 26 26 26 28 28 28 28 27 28 28 28 27 27 27 27 26 26 26 27 27 27 28 28 28 29 29 29 30 31 32 33 34 34 34 35 35 35 35 35 35 34 34 34 35 35 34 34 35 35 35 34 32 31 30 29 29 29 29 28 28 29 31 31 30 30 29 27 24
27 27 26 26 27 28 28 27 27 27 28 28 27 27 27 26 26 26 26 27 28 28 28 28 28 28 28 29 29 30 31 32 33 33 34 34 34 34 34 34 34 34 34 34 35 34 34 35 35 35 34 33 31 30 29 29 29 29 28 28 27 28 29 30 30 29 28 26 24
28 27 27 26 26 26 26 26 26 27 27 27 27 27 27 26 26 26 26 27 28 28 28 28 27 28 28 28 28 28 29 30 31 32 33 33 33 34 34 34 33 33 34 34 34 33 34 34 35 35 34 32 31 29 29 29 29 29 28 27 27 27 28 28 28 28 27 25 23
28 27 27 26 26 26 27 26 27 27 28 27 27 27 27 27 27 27 27 27 27 28 28 27 27 27 27 27 27 27 27 28 29 30 31 32 32 33 33 33 33 33 33 32 32 32 33 34 34 34 33 31 30 29 29 30 30 29 28 27 26 26 26 26 27 27 26 25 23
28 27 27 26 27 27 27 27 28 28 28 27 27 26 26 26 27 27 27 27 27 27 27 26 26 26 27 27 27 27 27 27 28 28 29 30 31 32 32 32 32 32 31 31 31 32 32 33 33 33 31 30 29 28 29 29 29 28 28 27 26 26 26 25 25 26 26 25 23
28 28 27 27 27 27 27 27 28 28 28 27 27 27 26 27 27 27 27 27 27 26 26 26 26 26 26 26 26 26 26 26 27 27 28 29 30 30 31 31 31 31 30 30 30 31 32 33 32 31 30 29 28 28 29 29 28 27 27 27 26 26 25 25 25 25 25 24 23
28 28 27 27 27 27 26 27 27 27 27 27 27 27 27 27 28 27 27 27 26 26 26 26 26 27 27 26 25 25 25 26 26 26 27 28 29 29 30 30 30 29 29 29 30 31 31 31 30 29 29 29 29 29 29 28 27 26 26 26 26 26 26 26 26 26 25 24 23
28 28 27 27 27 27 27 27 27 27 27 27 27 28 28 28 28 27 27 26 26 26 26 26 27 27 26 25 24 24 24 25 25 26 26 27 28 28 28 28 28 28 28 29 30 30 30 29 28 28 29 30 30 30 29 28 26 25 25 26 27 27 27 27 27 26 25 24 22
27 27 27 27 27 27 27 27 27 27 27 27 27 27 28 28 27 27 26 26 26 26 26 27 26 25 24 24 23 24 24 24 25 26 26 26 27 27 26 26 26 27 28 29 29 29 28 28 28 29 30 30 29 28 28 27 26 25 26 27 28 28 28 28 27 27 25 24 21
27 27 27 26 26 27 27 27 27 27 27 27 27 27 27 27 27 26 26 26 26 27 27 26 25 24 23 23 23 24 24 24 25 25 25 25 25 25 25 25 26 27 28 28 28 27 27 27 27 28 28 28 27 27 27 26 26 26 26 27 28 29 29 28 28 27 25 23 21
27 27 27 27 26 26 26 26 26 26 26 26 26 26 26 26 26 26 26 26 26 26 26 25 24 23 23 23 23 23 24 24 24 24 24 24 24 24 24 24 25 26 26 27 27 26 26 26 26 26 26 26 26 26 26 26 26 26 27 28 28 29 29 29 28 27 26 24 22
26 27 26 26 26 26 26 26 26 26 25 25 25 25 25 25 26 26 26 26 26 25 24 24 23 23 23 22 23 23 23 23 23 23 23 23 23 23 23 23 24 24 25 25 25 25 26 25 25 25 25 25 25 25 25 25 26 26 27 28 28 29 29 29 29 28 27 26 24
26 26 26 26 26 26 26 26 26 25 25 25 25 25 24 25 25 26 26 25 24 24 24 23 23 22 22 22 22 22 22 23 23 23 22 22 22 21 21 22 22 23 23 24 24 24 24 24 24 24 24 24 25 25 25 25 25 26 26 27 28 29 29 29 29 28 27 26 24
25 25 26 26 26 26 26 26 26 25 25 25 24 24 24 24 25 25 25 24 23 23 23 23 22 22 21 21 21 21 22 22 22 22 21 21 21 21 21 21 21 21 21 21 22 22 23 23 23 23 24 24 25 25 25 25 25 25 26 27 27 28 28 28 28 27 26 25 23
24 25 25 25 25 26 25 25 25 25 25 25 24 24 23 24 24 24 24 23 23 23 23 22 22 21 21 20 20 20 20 21 20 20 19 19 20 20 20 20 19 19 19 20 20 21 21 22 22 23 23 24 25 25 25 25 25 25 25 26 26 26 26 26 26 25 24 22 21
24 24 25 25 25 25 25 25 25 25 25 24 24 23 23 23 23 23 22 22 22 22 21 21 20 20 19 19 18 18 19 19 19 18 18 19 19 19 19 19 18 18 18 19 19 19 20 20 21 21 22 23 23 24 24 24 24 24 24 24 25 25 25 24 24 23 22 20 20
23 24 24 25 25 25 25 25 24 24 24 24 23 23 23 22 22 21 21 21 21 20 20 19 19 18 17 17 17 17 18 18 18 17 17 18 18 18 18 18 17 17 18 18 18 18 18 19 19 20 20 21 22 23 23 23 23 23 23 23 23 23 24 24 23 21 20 19 19
23 24 24 24 24 25 24 24 24 24 24 23 23 22 22 21 21 20 20 20 19 18 18 17 16 16 16 16 16 17 17 17 17 17 16 17 17 16 16 16 16 16 17 17 17 17 17 17 17 18 18 19 20 21 22 22 22 22 22 22 22 22 23 22 21 20 20 20 20
23 23 24 24 24 24 24 24 23 23 23 22 22 22 21 20 20 19 19 18 17 16 15 15 15 15 15 15 16 16 16 16 16 15 15 15 14 14 14 15 15 15 15 15 15 15 15 15 16 16 17 17 18 19 20 20 20 20 20 20 21 21 21 21 20 19 20 21 22
23 23 23 23 23 23 23 23 23 22 22 21 21 21 20 19 19 18 18 17 16 14 13 13 14 15 15 15 15 15 15 14 14 13 13 13 13 13 13 14 14 14 14 14 14 14 14 14 15 15 15 16 17 17 18 18 19 19 19 19 19 20 19 18 18 18 19 21 21
22 22 22 22 22 22 22 22 22 22 21 21 21 20 19 18 18 17 16 15 14 13 13 13 14 15 14 14 14 14 13 13 12 11 12 12 12 12 13 13 13 13 13 13 13 13 13 13 14 14 14 15 15 16 16 17 17 17 17 18 18 18 17 16 16 17 18 19 19
21 21 21 21 21 21 21 21 21 21 20 20 19 19 18 17 17 16 15 14 14 13 14 14 14 14 14 14 13 13 12 12 11 11 11 11 12 12 12 12 12 12 12 12 12 12 12 12 13 13 14 14 14 14 15 15 15 15 16 16 16 16 15 15 16 17 17 18 19
20 20 20 20 20 20 20 20 20 20 20 19 18 17 17 16 16 15 15 14 14 14 14 14 14 14 13 13 12 12 11 11 10 11 11 11 11 11 11 11 11 11 11 11 11 10 11 11 12 12 13 13 13 13 13 13 13 14 15 15 15 15 15 15 16 17 17 18 18
20 19 19 19 19 19 19 19 19 19 18 18 17 16 15 15 15 15 14 14 14 14 14 14 14 13 13 12 11 11 10 10 10 10 10 10 10 10 10 9 9 10 10 10 10 9 9 10 10 11 12 12 12 12 12 12 12 13 14 14 15 15 15 15 16 17 17 18 18
18 18 18 18 18 18 18 18 18 18 17 16 15 15 14 14 14 14 14 14 14 14 14 13 13 12 11 10 10 9 9 9 9 9 9 9 9 8 8 8 8 8 8 9 9 9 9 9 9 9 10 11 11 11 11 11 11 11 12 13 14 14 15 16 16 16 17 17 16
17 17 17 17 17 17 17 17 16 16 16 15 14 14 14 13 13 13 13 13 13 13 12 12 11 10 9 9 9 9 9 9 9 8 8 8 8 7 7 7 6 7 7 7 8 8 8 8 7 7 8 9 9 10 10 10 10 10 11 12 13 14 15 15 16 16 16 15 14
16 16 16 16 16 16 16 15 15 14 14 14 13 13 13 13 12 12 12 13 12 12 11 10 9 9 8 8 8 8 8 8 8 7 7 7 6 6 6 5 5 5 5 6 6 6 7 6 6 6 6 7 8 9 9 9 9 10 11 12 12 13 14 14 15 15 15 14 13
16 16 15 15 15 15 14 14 14 13 13 13 13 12 12 12 12 11 11 11 11 10 9 9 8 8 8 8 8 7 7 7 7 6 6 5 5 4 4 4 4 4 4 5 5 5 5 5 5 5 5 5 6 7 8 8 8 9 10 11 11 11 13 14 15 15 14 13 12
15 15 15 15 15 14 14 13 13 12 12 12 11 11 11 11 10 10 10 10 9 9 9 8 7 7 7 7 6 6 6 6 5 5 4 4 4 3 3 3 3 3 3 3 4 4 4 4 4 4 4 4 5 5 6 6 7 8 8 9 10 11 12 14 14 14 13 12 11
15 15 14 14 14 13 13 13 12 11 11 11 10 10 10 10 9 9 9 8 8 8 7 7 6 6 6 5 5 5 5 4 4 4 3 3 3 3 2 2 2 2 2 2 3 3 3 3 4 4 4 4 3 3 3 4 5 6 7 7 8 9 11 12 13 12 12 11 10
14 14 14 14 13 13 12 12 11 11 10 10 10 9 9 9 9 8 8 7 7 6 6 5 5 5 4 4 4 4 4 4 3 3 3 2 2 2 1 1 1 1 2 2 2 2 3 3 4 4 5 4 3 2 1 2 3 4 5 5 6 7 9 10 10 10 10 10 10
15 14 14 13 13 13 12 12 11 10 10 9 9 9 9 8 8 7 7 6 6 6 6 5 5 5 4 4 4 4 4 4 3 3 3 2 2 1 1 1 0 1 2 2 2 2 3 3 4 6 6 6 4 2 2 2 2 2 2 3 4 5 6 7 8 8 9 9 9
15 15 14 14 14 13 13 12 11 11 10 10 10 9 9 9 8 8 7 7 7 6 6 6 5 5 5 5 5 4 4 4 4 3 3 2 2 2 1 1 1 1 2 2 3 3 3 4 5 6 7 7 6 3 2 3 2 1 1 1 2 3 4 5 6 6 7 7 7
16 16 15 15 15 14 14 13 13 12 12 11 11 10 10 9 9 9 8 8 8 7 7 6 6 6 6 6 5 5 5 4 4 3 3 3 3 2 2 2 2 2 2 3 3 3 3 4 5 6 7 8 7 4 2 3 3 2 1 1 1 1 2 3 3 4 4 4 4
17 17 17 16 16 15 15 14 14 13 13 12 12 11 11 10 10 9 9 9 9 8 8 8 8 8 8 7 7 6 6 5 5 4 4 4 4 3 3 3 3 3 3 3 4 4 4 5 5 6 7 8 7 4 2 2 2 2 2 2 2 2 2 2 2 2 3 3 3
18 18 18 17 17 16 16 15 15 14 13 13 13 12 12 11 11 10 10 10 10 9 9 9 9 9 8 8 8 7 7 6 6 5 5 5 5 5 4 4 4 4 4 4 4 5 5 5 6 7 8 8 6 3 0 2 3 4 5 5 5 5 5 5 5 5 5 4 4
18 19 19 18 18 17 16 16 15 15 14 14 14 13 13 13 12 12 11 11 10 10 10 10 10 9 9 9 9 8 8 8 7 7 7 6 6 6 6 6 5 5 5 5 6 6 6 6 6 7 9 8 6 3 2 3 5 6 8 8 8 8 8 7 7 6 5 4 3
18 18 19 19 18 17 17 16 16 16 15 15 15 14 14 14 13 13 12 11 11 11 12 12 11 11 10 10 10 10 9 9 9 8 8 8 8 8 8 7 7 7 7 7 7 7 7 6 6 7 8 7 6 4 3 4 5 7 8 8 8 8 7 7 6 5 4 3 2
18 18 19 19 19 18 17 17 16 16 16 16 16 15 15 15 14 14 13 13 12 13 13 13 13 12 12 11 11 11 10 10 10 10 9 9 9 9 9 9 8 8 8 8 8 9 8 7 6 7 7 6 5 4 4 4 5 6 6 7 6 6 5 5 4 4 4 3 2
19 19 19 19 19 19 19 18 17 17 17 17 17 16 16 16 15 15 15 14 14 14 14 15 15 14 13 12 12 12 12 11 11 11 11 10 10 11 10 10 10 10 10 10 10 10 9 7 7 6 6 6 5 5 4 4 4 5 5 5 5 5 5 4 4 4 4 3 2
19 19 19 20 20 20 20 20 19 18 18 18 18 17 17 17 16 16 16 15 15 15 16 16 16 15 14 13 13 13 13 13 12 12 12 12 12 12 12 11 11 11 11 11 11 10 9 7 7 6 6 6 5 5 4 4 4 4 4 5 5 5 5 5 4 4 3 3 2
Wind_Direction
198 196 195 195 195 194 194 194 195 195 195 195 195 196 198 198 199 202 205 207 209 212 215 218 221 223 224 225 225 226 227 227 227 227 227 228 229 231 231 231 231 232 233 234 235 235 236 238 240 241 240 238 233 231 232 235 238 238 235 231 232 237 243 246 245 244 243 243 243
199 197 196 195 195 195 194 194 194 196 197 198 199 199 200 201 202 204 207 210 213 216 219 221 224 225 227 228 229 229 229 229 228 228 228 228 230 231 231 232 233 234 234 234 234 234 235 237 239 239 237 235 232 231 235 240 242 239 235 232 234 239 243 246 245 244 243 243 243
199 197 196 195 194 194 193 192 193 195 197 199 201 202 202 203 204 207 210 213 217 219 221 224 227 229 230 231 232 232 232 231 230 229 228 229 230 231 232 233 234 234 234 233 233 234 235 237 238 237 235 233 232 234 239 244 245 241 236 233 235 240 244 246 246 245 244 243 242
199 197 195 193 193 192 193 193 195 196 198 200 201 203 204 205 207 210 213 217 219 221 224 228 230 232 232 232 232 233 234 234 233 231 230 230 230 231 233 234 233 233 233 233 234 235 237 238 238 236 234 233 235 239 244 247 247 243 237 234 235 239 242 245 246 246 244 243 242
199 197 195 194 195 195 196 196 197 198 200 201 201 202 204 206 209 212 215 218 220 224 228 232 233 233 233 233 233 234 235 235 234 233 232 232 232 233 234 234 233 232 233 235 237 238 239 239 238 236 235 236 239 244 248 249 247 242 237 235 234 235 238 241 244 245 244 242 240
198 198 197 197 197 197 197 198 200 200 201 201 201 202 204 207 210 213 216 219 224 228 232 233 233 233 233 233 234 235 235 235 235 235 235 234 234 234 234 234 234 234 235 236 238 239 239 237 235 235 236 238 243 247 248 248 245 241 237 234 233 232 232 234 239 243 243 241 238
199 198 197 197 197 197 198 200 201 201 201 201 201 203 206 210 213 216 219 223 227 230 231 232 232 232 233 234 235 235 235 235 236 236 236 236 235 234 234 235 236 236 236 237 238 238 237 236 234 235 238 241 244 245 246 246 244 241 237 235 233 230 228 228 233 238 241 239 235
200 199 198 198 198 198 199 201 201 200 200 201 203 206 210 213 216 219 222 224 227 229 231 231 232 233 234 236 237 237 236 236 236 237 237 236 235 234 234 235 236 237 238 239 238 238 237 238 237 238 240 241 241 241 242 244 243 241 239 237 235 232 228 225 228 232 236 236 231
199 198 198 198 199 199 201 202 202 201 201 203 206 210 214 216 218 220 222 224 227 230 231 231 232 234 236 237 238 238 238 237 236 237 237 236 234 234 234 234 235 237 239 240 239 239 239 240 240 239 239 239 239 240 242 243 242 240 239 238 236 233 229 225 225 227 230 230 226
197 197 197 197 198 200 201 203 203 204 204 205 209 212 215 217 220 221 223 226 228 230 230 231 233 235 236 237 238 238 238 237 237 237 237 237 236 235 234 234 235 236 238 240 241 240 240 240 239 239 238 239 239 241 243 244 240 238 237 237 235 233 231 227 223 222 223 223 221
198 197 197 197 198 200 201 201 202 204 205 207 210 212 214 217 220 222 225 227 228 229 231 234 235 236 236 236 237 237 237 237 237 237 238 238 237 237 236 235 235 236 238 241 242 242 242 240 239 239 240 241 241 242 243 242 239 236 235 235 235 233 231 228 223 220 218 218 219
198 198 198 199 199 200 200 200 201 202 204 207 210 212 215 218 221 223 225 227 228 231 234 236 237 237 237 237 236 236 236 236 236 236 236 236 237 238 238 237 238 239 241 243 245 246 244 242 241 241 242 243 243 242 241 240 237 235 233 234 234 233 231 228 224 219 217 217 217
199 198 198 199 199 199 200 200 201 202 204 207 210 213 216 219 222 224 226 227 230 233 235 237 237 237 237 237 237 236 236 236 236 235 235 235 237 238 239 240 242 244 245 247 248 248 247 246 245 244 244 245 245 245 243 241 238 235 233 233 233 233 231 229 225 221 218 217 214
198 198 197 198 198 199 199 200 201 203 205 208 211 214 217 220 223 225 226 228 231 233 234 235 236 236 237 237 237 237 237 237 236 235 235 236 237 239 240 242 245 248 250 251 251 250 249 249 249 248 247 247 248 248 247 244 241 238 235 234 234 234 232 229 226 222 218 214 209
196 197 197 197 197 198 199 200 202 204 206 209 212 214 217 220 223 225 227 228 230 232 234 235 235 235 235 236 237 238 240 240 239 237 236 236 238 239 240 241 245 249 251 251 251 251 251 252 252 252 251 251 251 251 250 247 244 241 239 238 237 236 234 231 228 223 217 211 205
194 195 196 196 197 198 199 201 203 205 207 210 212 215 217 220 223 225 226 226 229 231 233 234 234 235 236 237 239 241 242 241 240 238 237 237 237 238 239 241 244 248 250 251 251 253 254 255 255 255 255 254 254 253 252 250 247 244 242 241 240 238 236 234 231 225 217 209 203
193 194 195 196 197 198 200 202 204 207 209 211 213 215 217 220 222 223 225 226 227 229 231 233 235 236 237 239 240 241 241 240 238 237 237 238 240 240 241 243 245 248 251 253 254 255 257 258 258 258 257 257 257 256 254 252 250 247 245 244 242 240 239 239 236 228 216 205 200
192 193 195 196 198 200 202 204 206 208 210 212 214 216 218 220 221 223 224 226 227 229 231 233 236 237 238 238 239 239 239 237 237 237 239 242 244 245 246 246 248 251 253 254 256 258 259 260 260 260 259 259 258 258 256 255 252 250 249 247 246 245 244 243 238 227 213 202 199
192 193 195 197 199 202 204 206 208 211 212 214 215 217 218 220 222 223 224 225 228 230 231 233 234 236 237 237 238 239 240 239 238 240 242 245 248 249 249 249 251 253 255 256 258 260 262 262 262 261 260 259 259 258 257 256 254 253 251 250 249 249 248 245 237 224 211 204 202
192 194 196 199 201 203 205 207 210 212 214 215 216 217 219 221 223 224 224 225 227 229 230 231 232 233 234 236 238 240 241 242 242 243 245 248 249 249 249 250 253 255 257 259 260 261 262 262 262 261 260 259 258 257 256 256 254 253 252 252 252 251 249 243 232 220 211 208 207
193 195 197 200 202 204 205 207 209 212 214 215 216 218 219 221 223 224 226 227 228 227 228 229 230 232 234 236 238 239 241 244 245 245 246 248 249 250 252 254 256 258 260 261 262 263 263 263 263 262 261 259 258 257 256 255 254 253 253 253 252 250 246 237 225 216 212 211 211
193 195 197 199 202 203 204 206 209 211 214 215 217 218 219 220 222 224 226 227 227 227 227 228 230 232 234 237 239 240 241 244 245 246 247 249 251 254 256 257 259 260 261 262 264 266 267 268 267 266 264 261 260 259 258 256 255 255 254 253 251 247 240 229 220 214 212 211 211
191 193 196 198 200 201 203 206 208 211 213 215 216 217 218 220 221 222 224 225 226 226 228 229 230 232 234 237 240 241 241 243 244 247 250 253 255 257 258 260 262 263 263 265 268 270 272 272 272 271 269 266 264 262 260 259 258 257 255 252 249 242 232 222 216 213 211 211 211
189 192 194 196 198 201 203 205 208 210 213 214 214 215 217 219 220 220 221 223 225 227 228 229 230 231 233 235 238 239 241 242 244 246 251 256 259 260 262 264 266 267 269 272 273 274 275 275 275 274 273 270 266 263 261 260 260 258 255 251 245 237 226 218 213 212 212 212 213
187 190 192 195 198 200 202 205 207 209 211 212 212 213 215 217 218 219 221 223 225 227 228 229 230 230 231 232 235 238 241 244 246 248 251 254 258 260 262 264 267 271 273 273 271 271 273 276 277 276 274 270 266 262 260 260 259 257 254 250 243 233 223 215 212 212 213 215 218
185 187 190 193 195 198 200 202 205 207 209 209 210 211 212 215 217 219 221 224 225 226 228 229 229 229 228 229 231 234 238 241 245 249 251 253 254 256 258 262 268 273 276 274 270 267 268 272 274 275 274 270 264 260 258 257 257 255 252 248 241 231 222 215 212 213 215 219 223
181 184 186 190 192 194 197 200 202 204 205 206 208 209 210 212 214 217 221 223 223 225 226 228 228 227 226 226 227 229 231 235 239 243 247 250 252 253 256 261 268 276 279 275 269 265 264 266 270 272 272 270 264 261 258 255 253 251 249 245 239 229 219 213 212 214 218 223 229
178 180 182 185 188 190 193 196 198 199 201 204 205 206 207 208 211 215 218 220 221 221 222 223 223 222 222 220 221 223 226 228 231 234 238 242 246 250 255 261 270 278 280 273 264 258 257 260 267 272 275 273 268 264 259 254 249 246 244 241 235 225 216 212 213 217 223 230 233
174 175 177 180 183 185 187 190 192 194 197 199 200 201 203 205 207 211 213 215 216 217 217 216 217 216 215 213 212 213 215 217 220 221 223 227 232 240 249 258 271 279 275 264 256 250 248 252 262 271 277 278 273 265 257 249 244 241 239 236 229 222 216 215 218 224 231 237 237
169 171 173 176 177 179 181 184 187 189 192 193 194 196 197 199 201 203 205 206 208 209 209 208 207 207 206 203 200 198 198 199 198 200 205 214 222 229 238 256 272 273 260 247 240 235 235 240 250 258 266 273 271 265 256 246 240 237 234 231 226 222 220 222 227 234 240 243 240
165 166 168 170 171 173 175 177 180 182 184 185 186 187 187 188 189 190 192 193 194 191 189 189 190 190 187 180 177 177 177 175 174 177 187 200 209 211 212 232 258 253 234 217 209 210 217 225 231 235 242 254 262 272 281 265 251 242 237 232 229 228 229 232 236 242 245 245 239
160 160 161 162 164 165 166 167 170 171 172 173 173 173 173 173 173 173 173 173 172 170 169 168 168 166 163 159 156 155 155 157 159 159 161 166 178 173 156 143 174 210 207 193 185 186 199 209 213 212 218 234 249 273 327 337 316 279 249 237 233 234 236 240 244 247 247 245 241
155 155 154 154 155 156 158 159 160 160 160 160 159 158 158 157 155 155 155 155 155 155 154 150 147 144 143 140 137 135 136 140 144 145 141 135 133 127 125 122 135 163 180 177 171 175 185 197 203 203 207 221 239 264 322 350 354 348 295 234 226 230 238 245 249 251 252 250 247
151 150 149 148 149 150 152 152 152 152 151 150 149 147 146 146 146 146 145 144 142 141 137 132 128 124 123 122 120 120 120 122 124 125 123 117 113 107 106 114 126 146 160 167 164 164 172 184 191 193 201 215 231 253 306 346 4 17 44 139 177 201 225 242 250 250 248 245 240
147 146 145 145 146 147 148 148 148 147 146 144 143 141 140 139 139 138 136 134 133 131 129 126 123 121 120 118 116 113 111 110 109 108 107 106 103 97 97 107 122 134 145 155 155 156 161 170 176 182 194 211 224 242 296 360 31 56 83 106 124 139 152 161 172 181 187 188 188
145 144 143 143 144 145 145 145 145 144 142 139 138 137 136 134 132 130 129 128 127 126 124 122 120 119 116 113 111 108 105 103 101 102 102 102 98 95 97 107 118 126 133 142 147 150 153 161 166 177 192 207 216 223 231 57 74 89 99 107 115 121 126 129 134 140 147 153 158
144 143 142 141 142 142 143 142 141 140 137 135 133 132 131 130 128 126 124 123 122 121 120 117 114 112 110 107 105 105 105 104 102 101 101 102 100 98 100 108 115 120 125 133 141 146 149 155 165 182 194 202 205 200 156 105 100 103 107 112 116 120 124 126 129 132 134 136 138
142 142 141 140 139 139 139 138 137 135 133 131 130 129 127 126 124 122 119 118 116 116 116 114 111 108 107 106 107 108 108 107 106 104 103 103 103 104 105 108 113 118 122 129 137 141 145 152 169 186 194 197 196 186 157 127 115 113 114 116 119 121 122 121 120 118 114 108 103
140 140 140 138 137 135 134 133 131 130 129 128 128 126 125 123 120 118 116 115 113 113 114 114 111 109 108 109 110 111 111 110 110 109 108 107 108 109 110 110 115 119 123 129 135 139 141 149 172 186 191 190 189 180 160 140 129 122 119 118 117 116 113 108 102 96 91 88 82
137 138 137 136 134 132 130 128 127 127 127 127 126 125 123 121 119 117 117 116 115 116 116 115 113 112 111 112 111 112 112 113 112 112 111 110 111 113 114 115 117 121 126 130 134 136 139 149 168 179 181 181 180 175 164 151 141 131 121 114 108 104 101 97 93 89 86 84 78
134 134 135 134 133 131 129 127 126 126 126 126 125 124 123 122 121 120 119 119 118 118 118 117 115 114 113 113 113 114 114 113 112 111 110 110 112 114 116 118 120 124 128 131 133 134 138 148 160 167 167 169 169 167 163 154 144 131 118 109 103 100 97 96 96 95 93 90 82
Height
765 766 767 769 770 771 772 774 776 777 779 780 782 783 784 786 787 788 789 790 791 792 793 793 794 795 796 797 798 799 800 801 802 803 804 805 806 806 807 808 810 811 812 813 814 815 815 816 817 817 818 818 819 820 821 822 822 823 825 826 827 828 829 830 830 831 832 832 833
763 765 766 768 769 770 772 773 775 777 778 779 781 782 783 785 786 787 788 789 790 791 792 792 793 794 795 796 797 798 799 800 801 802 803 804 805 806 806 807 808 810 811 812 812 813 814 814 815 816 816 817 818 819 820 821 821 822 823 824 825 827 828 829 829 830 831 831 832
762 764 765 767 768 770 771 773 774 776 777 778 780 781 782 784 785 786 787 788 789 790 791 792 792 793 794 795 796 797 798 799 800 801 802 803 804 804 805 806 807 808 809 810 811 811 812 813 814 814 815 816 817 818 819 820 820 820 821 822 824 825 826 827 828 829 830 831 831
761 762 764 765 767 768 770 771 773 775 776 777 779 780 782 783 784 785 786 787 788 789 790 791 792 792 793 794 795 796 797 798 799 800 801 802 803 803 804 805 806 807 808 809 809 810 811 812 812 813 814 815 816 817 818 818 818 819 820 821 822 823 825 826 827 828 829 830 830
760 762 763 764 766 767 768 770 772 773 775 777 778 780 781 782 783 784 785 786 787 788 789 790 791 791 792 793 794 795 796 797 798 799 800 801 802 802 803 804 804 805 806 807 808 809 810 811 812 812 813 814 815 816 816 816 817 817 818 819 820 822 823 824 826 827 828 828 829
759 761 762 763 765 766 768 769 771 772 774 776 777 778 780 781 782 783 784 785 786 787 788 789 790 791 791 792 793 795 796 797 797 798 799 800 801 802 802 803 803 804 806 807 807 808 808 809 810 811 812 813 814 814 814 814 815 816 817 817 818 820 821 822 824 825 826 827 827
758 760 761 762 764 766 767 769 770 772 773 775 776 777 778 780 781 782 783 784 785 786 787 788 789 790 791 792 793 794 795 796 797 797 798 799 800 801 801 802 803 804 805 806 806 807 807 808 809 810 811 812 812 812 812 812 813 814 815 816 817 818 819 821 822 823 824 825 826
757 759 760 762 763 765 766 768 769 771 772 774 775 776 777 778 780 781 782 783 784 785 786 787 787 788 790 791 792 793 794 795 796 797 797 798 799 799 800 801 802 803 804 804 805 805 807 807 808 809 810 810 810 810 810 811 812 813 813 814 815 816 817 818 820 821 822 823 824
757 758 760 761 763 764 766 767 768 770 771 773 774 775 776 777 779 780 781 782 783 784 785 786 787 788 789 791 792 792 793 794 795 796 796 797 798 799 800 801 802 802 803 803 804 805 806 807 807 807 808 808 808 809 809 810 811 812 812 813 813 814 815 816 817 818 820 822 822
756 757 759 761 762 764 765 766 768 769 770 772 773 774 776 777 778 779 780 781 782 783 784 785 786 787 789 790 791 792 792 793 794 795 796 797 797 798 799 800 801 801 802 802 803 804 805 806 806 806 807 807 807 808 808 809 810 810 811 811 812 812 813 814 815 816 818 819 820
755 757 758 760 762 763 764 766 767 769 770 772 773 774 775 777 777 779 780 781 781 782 783 785 786 787 788 789 790 791 792 792 793 794 795 796 797 797 798 799 800 800 801 802 802 803 804 804 805 805 806 806 807 807 807 807 808 809 809 809 810 811 812 812 813 814 816 817 818
754 756 757 759 761 762 764 765 767 768 770 771 772 773 775 776 777 778 779 780 781 782 783 784 785 786 787 788 789 790 791 792 792 793 794 795 796 797 797 798 799 800 800 801 802 802 803 803 804 804 805 805 805 806 806 806 807 807 808 808 809 809 810 811 812 813 814 815 816
754 755 757 759 760 762 763 764 766 767 769 770 772 773 774 775 776 777 778 779 781 782 783 784 785 786 787 787 788 789 790 791 792 792 793 794 795 796 797 798 798 799 800 800 801 801 802 802 803 803 804 804 804 805 805 806 806 807 807 807 808 808 809 809 810 811 812 813 814
753 755 756 758 759 761 762 764 765 767 768 769 771 772 773 774 775 777 777 779 780 781 782 783 784 785 786 787 788 789 789 790 791 792 792 794 794 795 796 797 797 798 799 799 800 800 801 801 802 802 803 803 803 803 804 805 805 806 806 807 807 807 808 809 810 811 812 812 813
753 754 756 757 759 760 762 763 764 766 767 769 770 771 772 774 775 776 777 778 779 781 782 782 783 784 786 786 787 788 789 789 790 791 792 793 794 794 795 796 797 797 798 798 799 799 800 800 801 802 802 802 802 803 803 804 804 805 805 806 807 807 808 808 809 810 811 812 813
752 754 755 757 758 760 761 762 764 765 767 768 769 770 772 773 774 775 777 778 779 780 781 782 783 784 785 786 787 787 788 789 790 791 792 792 793 793 794 795 796 796 797 797 798 799 799 800 800 801 801 802 802 802 802 803 803 804 805 805 806 807 807 808 809 810 811 812 813
752 753 754 756 757 759 760 762 763 764 766 767 768 770 771 772 773 775 776 777 778 779 780 782 782 783 784 785 786 787 787 788 789 790 791 791 792 792 793 794 795 796 796 797 797 798 798 799 800 800 801 801 801 802 802 802 803 803 804 805 806 806 807 807 808 810 811 812 813
751 752 754 755 757 758 760 761 762 764 765 767 768 769 770 772 773 774 775 777 777 779 780 781 782 783 784 785 785 786 787 787 788 789 790 791 792 792 793 794 794 795 796 796 797 797 798 798 799 800 800 800 801 801 802 802 802 803 804 804 805 805 806 807 808 809 810 811 812
750 752 753 755 756 757 759 761 762 763 764 766 767 768 770 771 772 773 775 776 777 778 780 781 782 782 783 784 785 785 786 787 788 789 789 790 791 792 792 793 794 794 795 796 796 797 797 798 798 799 799 800 800 801 801 802 802 802 803 804 804 805 805 806 807 808 809 810 811
750 751 753 754 756 757 759 760 761 763 764 765 767 768 769 771 772 773 774 776 777 778 779 780 781 782 782 783 784 785 786 787 787 788 789 790 791 791 792 793 793 794 794 795 796 796 797 797 797 798 798 799 799 800 800 801 801 802 802 803 803 804 805 806 807 807 808 809 810
749 751 752 754 755 757 758 760 761 762 764 765 766 768 769 771 772 773 774 775 777 778 779 780 780 781 782 783 784 784 785 786 787 788 789 790 790 791 792 792 793 793 794 794 795 795 796 797 797 797 798 798 798 799 799 800 801 801 802 802 803 803 804 805 806 807 808 809 810
749 751 752 754 755 757 758 760 761 762 763 765 766 767 769 770 772 773 774 775 776 777 778 779 780 781 782 782 783 784 785 786 787 788 788 789 790 790 791 792 792 792 793 794 794 795 795 796 796 797 797 797 798 798 799 799 800 800 801 802 802 803 804 805 806 807 807 808 809
749 751 752 754 755 757 758 759 761 762 763 765 766 767 769 770 771 772 774 775 776 777 778 778 779 780 781 782 783 784 785 786 787 787 788 789 789 790 791 791 792 792 792 793 793 794 795 795 796 796 797 797 797 798 798 799 799 800 800 801 802 802 803 804 805 806 807 808 809
749 750 752 753 755 757 758 759 761 762 763 765 766 767 769 770 771 772 773 774 775 776 777 778 779 780 781 782 783 784 785 785 786 787 787 788 789 789 790 790 791 791 792 792 793 793 794 795 795 796 796 797 797 797 798 798 799 799 800 800 801 802 803 804 805 806 807 807 809
749 750 752 753 755 756 758 759 760 762 763 764 766 767 768 770 771 772 773 774 775 776 777 778 779 780 781 782 782 783 784 785 786 787 787 788 788 789 789 790 790 791 791 792 792 793 793 794 795 795 796 796 797 797 797 797 798 799 799 800 801 801 802 803 804 805 806 807 808
749 750 752 753 755 756 758 759 760 762 763 764 766 767 768 769 770 772 772 774 775 776 777 777 778 779 780 781 782 783 784 785 785 786 787 787 788 788 789 789 790 790 791 791 792 792 793 793 794 795 795 796 796 796 797 797 797 798 799 799 800 801 802 803 804 805 806 807 808
749 750 752 753 755 756 757 759 760 762 763 764 766 767 768 769 770 771 772 773 774 775 776 777 778 779 780 781 782 782 783 784 785 786 786 787 787 788 788 789 789 790 790 791 792 792 792 793 793 794 794 795 796 796 796 797 797 797 798 799 800 800 801 802 803 805 806 807 808
749 750 752 753 755 756 757 759 760 762 763 764 765 766 767 769 770 771 772 773 774 775 776 777 778 779 780 781 781 782 783 784 784 785 786 786 787 787 788 788 789 790 790 791 792 792 792 793 793 793 794 794 795 795 796 796 797 797 798 798 799 800 801 802 803 804 806 807 807
749 750 752 753 755 756 757 759 760 761 762 764 765 766 767 768 770 771 772 773 774 775 776 777 777 778 779 780 781 782 782 783 784 785 785 786 787 787 788 788 789 789 790 791 791 792 792 792 793 793 793 794 794 795 795 796 796 797 797 798 799 800 801 802 803 804 805 806 807
749 750 752 753 754 756 757 758 760 761 762 764 765 766 767 768 769 770 772 772 773 774 775 776 777 778 779 780 781 782 782 783 784 784 785 786 786 787 787 788 788 789 790 790 791 792 792 792 793 793 793 794 794 795 795 796 796 797 797 798 799 800 801 802 803 804 805 806 806
749 750 752 753 754 756 757 758 760 761 762 763 765 766 767 768 769 770 771 772 773 774 775 776 777 778 779 780 780 781 782 783 783 784 785 786 786 787 787 788 788 789 790 790 791 792 792 792 793 793 793 793 794 795 795 796 796 797 797 798 799 800 801 802 802 803 804 805 806
749 750 752 753 754 756 757 758 760 761 762 763 765 766 767 768 769 770 771 772 773 774 775 776 777 778 779 780 780 781 782 782 783 784 785 786 786 787 787 788 788 789 789 790 791 791 792 792 793 793 793 794 794 795 795 796 796 797 797 798 799 800 801 801 802 803 804 804 805
749 750 752 753 754 756 757 758 760 761 762 763 765 766 767 768 769 770 771 772 773 774 775 776 777 778 779 779 780 781 782 782 783 784 785 785 786 787 787 788 788 789 789 790 790 791 792 792 793 793 794 794 794 795 796 796 796 797 797 798 798 799 800 801 802 802 803 804 805
749 750 752 753 754 756 757 758 760 761 762 763 765 766 767 768 769 770 771 772 773 774 775 776 777 778 779 779 780 781 782 782 783 784 785 785 786 787 787 787 788 789 789 790 790 791 792 792 792 793 794 794 794 795 796 796 796 797 797 797 798 799 800 801 802 802 803 804 805
749 750 751 753 754 756 757 758 760 761 762 763 765 766 767 768 769 770 771 772 773 774 775 776 777 778 779 779 780 781 782 782 783 784 785 785 786 786 787 787 788 789 789 790 790 791 791 792 792 793 794 794 794 795 796 796 797 797 797 797 798 799 800 801 802 802 803 804 805
749 750 751 752 754 755 757 758 760 761 762 763 765 766 767 768 769 770 771 772 773 774 775 776 777 778 779 779 780 781 782 782 783 784 784 785 786 786 787 787 788 788 789 790 790 791 791 792 793 793 794 794 795 796 796 797 797 797 797 797 798 799 800 801 802 802 803 804 804
749 750 751 752 754 755 757 758 760 761 762 763 765 766 767 768 769 770 772 772 773 774 775 776 777 778 779 780 780 781 782 782 783 784 784 785 785 786 787 787 787 788 789 789 790 791 791 792 793 793 794 794 795 796 796 797 797 797 797 798 799 799 800 801 802 802 803 803 804
749 750 751 752 754 756 757 758 760 761 762 763 765 766 767 768 769 771 772 772 773 774 775 776 777 778 779 780 780 781 782 782 783 784 784 785 785 786 786 787 787 788 789 789 790 791 791 792 793 793 793 794 795 796 797 797 797 797 798 798 799 800 800 801 802 802 802 803 803
749 751 752 753 754 756 757 758 760 761 762 764 765 766 767 768 769 771 772 773 774 774 775 776 777 778 779 780 780 781 782 782 783 784 784 785 785 786 786 787 787 788 789 789 790 791 791 792 793 793 794 794 795 796 797 797 797 798 798 799 799 800 800 801 801 802 802 802 802
750 751 752 753 755 756 757 759 760 762 763 764 765 766 767 768 770 771 772 773 774 774 775 776 777 778 779 780 780 781 782 782 783 784 784 785 785 786 786 787 787 788 789 789 790 791 791 792 792 793 794 794 795 796 796 797 797 798 798 799 799 800 800 801 801 801 802 802 802
750 752 753 754 755 756 757 759 760 762 763 764 765 767 767 769 770 771 772 773 774 774 775 776 777 778 779 780 781 781 782 782 783 784 784 785 785 786 786 787 787 788 789 789 790 791 791 792 792 793 794 794 795 796 796 797 797 798 798 799 799 800 800 800 801 801 801 801 801